Doha, Qatar

12:28 PM AST on February 24, 2017 (GMT +0300)
Doha International

Weather History for OTBD - March, 2014

Change the Weather History Date:

Thursday, March 20, 2014

  Actual Average Record
Temperature  
Mean Temperature 76 °F -  
Max Temperature 83 °F 86 °F 89 °F (2009)
Min Temperature 68 °F 67 °F 57 °F (2007)
Cooling Degree Days 10    
Growing Degree Days 26 (Base 50)    
Moisture  
Dew Point 60 °F    
Average Humidity 60    
Maximum Humidity 88    
Minimum Humidity 22    
Precipitation  
Precipitation 0.00 in 0.01 in - ()
Sea Level Pressure  
Sea Level Pressure 29.93 in    
Wind  
Wind Speed 6 mph ()    
Max Wind Speed 12 mph    
Max Gust Speed -    
Visibility 7.7 miles    
Events      
Averages and records for this station are not official NWS values.
T = Trace of Precipitation, MM = Missing Value Source: Averaged Metar Reports

Daily Weather History Graph

Daily Weather History Graph

Search for Another Location

Airport or City:

Trip Planner

Search our weather history database for the weather conditions in past years. The results will help you decide how hot, cold, wet, or windy it might be!

Date:

Astronomy

Mar. 20, 2014 Rise Set
Actual Time 5:38 AM AST 5:44 PM AST
Civil Twilight 5:15 AM AST 6:07 PM AST
Nautical Twilight 4:48 AM AST 6:34 PM AST
Astronomical Twilight 4:21 AM AST 7:01 PM AST
Moon 9:16 PM AST (3/20) 7:49 AM AST (3/20)
Length of Visible Light 12h 52m
Length of Day
12h 06m
Waning Gibbous, 86% of the Moon is Illuminated
Mar 20
Waning Gibbous
Mar 24
Last Quarter
Mar 30
New
Apr 7
First Quarter
Apr 15
Full

Hourly Weather History & Observations

Time (AST) Temp. Heat Index Dew Point Humidity Pressure Visibility Wind Dir Wind Speed Gust Speed Precip Events Conditions
12:00 AM 70 °F - 62 °F 70% 29.95 in 7 mi SE 3.5 mph - -   Clear
12:00 AM 69.8 °F - 62.6 °F 78% 29.95 in - SE 3.5 mph - N/A   Clear
12:30 AM 69.8 °F - 60.8 °F 73% 29.92 in - SE 3.5 mph - N/A   Clear
1:00 AM 69.8 °F - 60.8 °F 73% 29.92 in - ESE 3.5 mph - N/A   Clear
1:30 AM 71.6 °F - 62.6 °F 73% 29.92 in - ESE 6.9 mph - N/A   Clear
2:00 AM 71.6 °F - 64.4 °F 78% 29.92 in - ESE 4.6 mph - N/A   Clear
2:30 AM 71.6 °F - 64.4 °F 78% 29.89 in - ESE 4.6 mph - N/A   Clear
3:00 AM 72 °F - 64 °F 68% 29.91 in 7 mi ESE 5.8 mph - -   Partly Cloudy
3:00 AM 71.6 °F - 64.4 °F 78% 29.89 in - ESE 5.8 mph - N/A   Clear
4:00 AM 69.8 °F - 66.2 °F 88% 29.92 in - NE 4.6 mph - N/A   Clear
4:30 AM 69.8 °F - 66.2 °F 88% 29.92 in - NNE 9.2 mph - N/A   Clear
5:00 AM 69.8 °F - 66.2 °F 88% 29.95 in 5.6 mi NNE 6.9 mph - N/A   Unknown
5:30 AM 69.8 °F - 64.4 °F 83% 29.95 in 5.6 mi NE 4.6 mph - N/A   Unknown
6:00 AM 70 °F - 65 °F 79% 29.97 in 7 mi East 3.5 mph - -   Partly Cloudy
6:00 AM 69.8 °F - 64.4 °F 83% 29.95 in - East 3.5 mph - N/A   Clear
6:30 AM 71.6 °F - 64.4 °F 78% 29.98 in - NE 5.8 mph - N/A   Clear
7:00 AM 71.6 °F - 66.2 °F 83% 29.98 in - ENE 5.8 mph - N/A   Clear
7:30 AM 73.4 °F - 64.4 °F 73% 29.98 in - ESE 8.1 mph - N/A   Clear
8:00 AM 75.2 °F - 62.6 °F 65% 29.98 in - ESE 9.2 mph - N/A   Clear
8:30 AM 75.2 °F - 60.8 °F 61% 29.98 in - ESE 10.4 mph - N/A   Clear
9:00 AM 77 °F - 58 °F 41% 30.00 in 9 mi ENE 8.1 mph - -   Clear
9:00 AM 77.0 °F - 57.2 °F 50% 29.98 in - East 8.1 mph - N/A   Clear
9:30 AM 78.8 °F - 59.0 °F 51% 29.98 in - SE 10.4 mph - N/A   Clear
10:00 AM 78.8 °F - 60.8 °F 54% 29.98 in - East 10.4 mph - N/A   Clear
10:30 AM 78.8 °F - 60.8 °F 54% 29.98 in - ESE 9.2 mph - N/A   Clear
11:00 AM 82.4 °F - 44.6 °F 26% 29.98 in - SE 5.8 mph - N/A   Clear
11:30 AM 82.4 °F - 46.4 °F 28% 29.95 in - SE 6.9 mph - N/A   Clear
12:00 PM 83 °F - 51 °F 22% 29.96 in 9 mi SSE 9.2 mph - -   Partly Cloudy
12:00 PM 82.4 °F - 50.0 °F 32% 29.95 in - SSE 9.2 mph - N/A   Clear
12:30 PM 80.6 °F 80.8 °F 57.2 °F 45% 29.95 in - East 11.5 mph - N/A   Clear
1:00 PM 80.6 °F 81.1 °F 59.0 °F 48% 29.95 in - East 9.2 mph - N/A   Clear
1:30 PM 80.6 °F 81.5 °F 60.8 °F 51% 29.92 in - ESE 9.2 mph - N/A   Clear
2:00 PM 80.6 °F 81.5 °F 60.8 °F 51% 29.92 in - East 9.2 mph - N/A   Clear
3:00 PM 80 °F - 58 °F 37% 29.91 in 9 mi East 8.1 mph - -   Scattered Clouds
3:00 PM 80.6 °F 81.1 °F 59.0 °F 48% 29.89 in - East 8.1 mph - N/A   Clear
4:00 PM 78.8 °F - 59.0 °F 51% 29.89 in - East 9.2 mph - N/A   Clear
4:30 PM 78.8 °F - 57.2 °F 47% 29.89 in - East 6.9 mph - N/A   Clear
5:00 PM 77.0 °F - 60.8 °F 57% 29.89 in - East 6.9 mph - N/A   Clear
6:00 PM 76 °F - 61 °F 49% 29.91 in 9 mi East 5.8 mph - -  
6:00 PM 77.0 °F - 60.8 °F 57% 29.89 in - East 5.8 mph - N/A   Clear
6:30 PM 75.2 °F - 60.8 °F 61% 29.89 in - ENE 4.6 mph - N/A   Clear
7:00 PM 75.2 °F - 60.8 °F 61% 29.89 in - ENE 6.9 mph - N/A   Clear
8:00 PM 73.4 °F - 64.4 °F 73% 29.92 in - East 4.6 mph - N/A   Clear
9:00 PM 74 °F - 61 °F 55% 29.93 in 9 mi East 5.8 mph - -  
9:00 PM 75.2 °F - 60.8 °F 61% 29.92 in - East 5.8 mph - N/A   Clear
9:30 PM 75.2 °F - 59.0 °F 57% 29.92 in - East 5.8 mph - N/A   Clear
10:00 PM 75.2 °F - 59.0 °F 57% 29.92 in - East 5.8 mph - N/A   Clear
10:30 PM 75.2 °F - 60.8 °F 61% 29.89 in - East 5.8 mph - N/A   Clear
11:00 PM 75.2 °F - 57.2 °F 53% 29.89 in - East 5.8 mph - N/A   Clear
11:30 PM 75.2 °F - 53.6 °F 47% 29.89 in - East 5.8 mph - N/A   Clear